User: anonymous   Login
Location: Adrasan
(36.3319°N, 30.4314°E)
Time: 13:06:38
(UTC+00:00)
Language:

Meteor 1-5 Rocket - Orbit

View from above orbital plane
View from above orbital plane
View from above satellite
View from above satellite

Ground track
Ground track

The orbit data is extracted from the following two-line orbital elements,

1  4420U 70047B   24103.95656602  .00000316  00000-0  15928-3 0  9995
2  4420  81.2313  55.4253 0087491   9.9066 350.3805 14.12327612770178
Epoch (UTC): 12 April 2024 22:57:27
Eccentricity: 0.0087491
inclination: 81.2313°
perigee height: 788 km
apogee height: 914 km
right ascension of ascending node: 55.4253°
argument of perigee: 9.9066°
revolutions per day: 14.12327612
mean anomaly at epoch: 350.3805°
orbit number at epoch: 77017

The dashed part of the orbit path shows where the satellite is in the earth's shadow,  

DLR